Left ArrowRight Arrow

32.19382, -80.73816

Hourly Observations for January 18, 2020

Temp ( °F °C ) Dew Point ( °F °C ) Humidity (%) Winds ( mph kmh ) Pressure ( in mb ) Visibility ( mi km ) Precip ( " mm )
12:15 am 00:15 Cloudy 48 9 37 3 66 66 NNE 12 19 30.55 1035 10 16 N/A
12:35 am 00:35 Cloudy 46 8 37 3 71 71 NNE 12 19 30.55 1035 10 16 N/A
12:55 am 00:55 Cloudy 46 8 37 3 71 71 NNE 12 19 30.54 1034 10 16 N/A
1:15 am 01:15 Cloudy 46 8 37 3 71 71 NNE 10 17 30.53 1034 10 16 N/A
1:35 am 01:35 Cloudy 46 8 37 3 71 71 NNE 10 17 30.52 1034 10 16 N/A
1:55 am 01:55 Mostly Cloudy 46 8 37 3 71 71 NNE 12 19 30.51 1033 10 16 N/A
2:15 am 02:15 Mostly Cloudy 46 8 37 3 71 71 NNE 12 19 30.50 1033 10 16 N/A
2:35 am 02:35 Mostly Cloudy 46 8 37 3 71 71 NNE 12 19 30.50 1033 10 16 N/A
2:55 am 02:55 Mostly Cloudy 46 8 39 4 76 76 NNE 14 22 30.49 1033 10 16 N/A
3:15 am 03:15 Cloudy 46 8 39 4 76 76 NNE 14 22 30.49 1033 10 16 N/A
3:35 am 03:35 Cloudy 48 9 39 4 71 71 NNE 15 24 30.49 1033 10 16 N/A
3:55 am 03:55 Cloudy 48 9 39 4 71 71 NNE 14 22 30.48 1032 10 16 N/A
4:15 am 04:15 Cloudy 48 9 39 4 71 71 NNE 13 20 30.48 1032 10 16 N/A
4:35 am 04:35 Cloudy 46 8 39 4 76 76 N 16 26 30.47 1032 10 16 N/A
4:55 am 04:55 Cloudy 48 9 41 5 76 76 NNE 12 19 30.46 1032 10 16 N/A
5:15 am 05:15 Cloudy 48 9 41 5 76 76 N 14 22 30.46 1032 10 16 N/A
5:35 am 05:35 Cloudy 48 9 41 5 76 76 NNE 13 20 30.46 1032 10 16 N/A
6:50 am 06:50 Mostly Cloudy 46 8 41 5 82 82 NNE 13 20 30.46 1032 10 16 N/A
7:50 am 07:50 Partly Cloudy 46 8 41 5 82 82 NNE 13 20 30.45 1031 10 16 N/A
8:50 am 08:50 Mostly Sunny 48 9 41 5 76 76 NNE 13 20 30.44 1031 10 16 N/A
9:50 am 09:50 Sunny 52 11 45 7 77 77 NNE 14 22 30.45 1031 10 16 N/A
10:50 am 10:50 Mostly Cloudy 57 14 46 8 67 67 NNE 10 17 30.44 1031 10 16 N/A
12:50 pm 12:50 Partly Cloudy 61 16 54 12 77 77 E 8 13 30.36 1028 10 16 N/A
1:50 pm 13:50 Mostly Sunny 61 16 54 12 77 77 E 5 7 30.33 1027 10 16 N/A
2:50 pm 14:50 Mostly Sunny 66 19 54 12 64 64 SSE 3 6 30.30 1026 10 16 N/A
3:50 pm 15:50 Partly Cloudy 64 18 54 12 68 68 S 7 11 30.28 1025 10 16 N/A
4:50 pm 16:50 Partly Cloudy 61 16 55 13 83 83 S 3 6 30.24 1024 10 16 N/A
5:50 pm 17:50 Partly Cloudy 59 15 55 13 88 88 S 6 9 30.22 1023 10 16 N/A
6:50 pm 18:50 Partly Cloudy 59 15 55 13 88 88 SSW 6 9 30.21 1023 10 16 N/A
7:50 pm 19:50 Partly Cloudy 63 17 55 13 77 77 S 10 17 30.18 1022 10 16 N/A
8:50 pm 20:50 Mostly Cloudy 63 17 57 14 83 83 S 13 20 30.16 1021 10 16 N/A
8:55 pm 20:55 Mostly Cloudy 63 17 57 14 83 83 S 12 19 30.16 1021 10 16 N/A
9:15 pm 21:15 Mostly Cloudy 63 17 57 14 83 83 SSW 13 20 30.17 1022 10 16 N/A
9:35 pm 21:35 Mostly Cloudy 63 17 57 14 83 83 SSW 13 20 30.17 1022 10 16 N/A
9:55 pm 21:55 Mostly Cloudy 64 18 57 14 78 78 SSW 14 22 30.16 1021 10 16 N/A
10:15 pm 22:15 Mostly Cloudy 64 18 59 15 83 83 SSW 14 22 30.16 1021 10 16 N/A
10:35 pm 22:35 Cloudy 64 18 59 15 83 83 SSW 15 24 30.16 1021 10 16 N/A
10:55 pm 22:55 Cloudy 64 18 59 15 83 83 S 16 26 30.16 1021 10 16 N/A
11:15 pm 23:15 Cloudy 64 18 59 15 83 83 S 15 24 30.14 1021 10 16 N/A
11:35 pm 23:35 Cloudy 64 18 59 15 83 83 SSW 14 22 30.14 1021 10 16 N/A
11:55 pm 23:55 Cloudy 64 18 59 15 83 83 S 16 26 30.14 1021 10 16 N/A

Powered by Vaisala Xweather